sat.trackr.live / text

‹ back to catalog

CAPELLA-11 (ACADIA-1)

NORAD 57693 · 2023-126A

PAYLOAD ACTIVE UNKNOWN

§ Identity

Operator
Country
US
Launch date
2023-08-23
Launch site
RLLB
Launch vehicle
Mass (kg)
RCS (m²)

External: N2YO · Heavens-Above · Gunter

§ Orbital elements

Epoch: 2026-05-25T03:03:14.069088Z

Period
97.13 min
Inclination
53.0077°
Eccentricity
0.0001775
Mean motion
14.82510460 rev/d
Perigee alt
620.2 km
Apogee alt
622.7 km
Semi-major
6,999.5 km
B*
5.5314e-4
RAAN
284.8139°
Arg perigee
61.2290°
Mean anomaly
298.8866°
Rev number
14,870

§ Raw data

CAPELLA-11 (ACADIA-1)1 57693U 23126A   26145.12724617  .00004260  00000+0  55314-3 0  99942 57693  53.0077 284.8139 0001775  61.2290 298.8866 14.82510460148707

JSON: /api/v1/satellites/57693 · /tle

For live sub-satellite position, see the globe view (requires WebGL).

§ Visibility from observer

Set your observer location to see the next 7 days of passes ≥ 10°. The values pass through the URL so the page stays shareable.

No JS? Fill the form by hand. The geolocation button needs JavaScript.